Iwami current weather conditions

sailwx.info

Wind from 010 at 7 knots

Air temperature 6.0° C
Visibility: greater than 5.4 NM
Dewpoint -4.0° C

Last reported at 2015-Mar-05 02:00 UTC.
Time now 2015-Mar-05 04:07 UTC

Location: N 34°41' E 131°47'.
View on Google Maps.

See reports from other nearby stations

  
Tides and Currents Weather Stations Pressure Air Temp Water Temp Dewpoint Dewpoint Depression Visibility Wind Speed Wind Dir Waves Ship Positions
date/time (UTC)wind fromknots sea level pressurealtimeterstation pressurevisibilityair tempwater tempwave heightnotes
2015-Mar-05 02:00 010 7 5.4 6.0
2015-Mar-05 01:00 010 9 5.4 6.0
2015-Mar-05 00:00 350 5 5.4 6.0
2015-Mar-04 10:00 250 5 5.4 4.0
2015-Mar-04 09:00 300 11 5.4 5.0
2015-Mar-04 08:00 280 11 5.4 6.0
2015-Mar-04 07:00 280 14 5.4 7.0
2015-Mar-04 06:00 280 13 5.4 7.0
2015-Mar-04 05:00 280 15 5.4 6.0
2015-Mar-04 04:00 270 18 5.4 6.0
2015-Mar-04 03:00 280 19 5.4 6.0
2015-Mar-04 02:00 260 15 5.4 6.0
2015-Mar-04 01:00 250 12 gusting 24 5.4 6.0
2015-Mar-04 00:00 240 12 5.4 7.0
2015-Mar-03 23:00 260 15 gusting 27 5.4 7.0 Light rain showers.
2015-Mar-03 10:00 160 5 2.2 6.0 Light rain. Mist.
2015-Mar-03 09:00 100 2 2.2 6.0 Light rain. Mist.
2015-Mar-03 08:00 2.2 7.0 Light rain. Mist.
2015-Mar-03 07:00 090 3 2.2 7.0 Light rain. Mist.
2015-Mar-03 06:00 150 2 3.8 7.0 Light rain.
2015-Mar-03 05:00 150 5 gusting 15 5.4 7.0 Light rain.
2015-Mar-03 04:00 150 3 5.4 7.0 Light rain.